Location: Dana
(41.8364°N, 106.7042°W)
Time: 20:47:53
(UTC+00:00)

Tiros 1 despin weight - Pass Details

Date: 14 May 2026
Orbit: 555 x 591 km, 48.2° (Epoch: 1 June)

Event Time Altitude Azimuth Distance (km) Brightness Sun altitude
Rises 17:00:29 0° 297° (WNW) 2,735 ? 55.2°
Reaches altitude 10° 17:02:47 10° 301° (WNW) 1,837 ? 55.6°
Maximum altitude 17:06:54 56° 21° (NNE) 659 ? 56.2°
Drops below altitude 10° 17:11:01 10° 100° (E) 1,831 ? 56.8°
Sets 17:13:18 0° 105° (ESE) 2,726 ? 57.2°
